Location: Nelson
(41.2830°S, 173.2830°E)
Time: 04:00:28
(UTC+13:00)

SPOT 1/Viking Rocket - Pass Details

Date: 24 January 2019
Orbit: 777 x 795 km, 98.5° (Epoch: 16 October)

Event Time Altitude Azimuth Distance (km) Brightness Sun altitude
Rises 23:00:47 0° 155° (SSE) 3,335 7.2 -19.3°
Reaches altitude 10° 23:03:29 10° 144° (SE) 2,397 6.2 -19.6°
Maximum altitude 23:07:59 28° 85° (E) 1,474 4.6 -20.1°
Enters shadow 23:08:03 28° 84° (E) 1,474 4.6 -20.1°
